This demonstration page uses our WeatherBlox Daily Observations layout. Learn more.

Left ArrowRight Arrow

Hourly Observations for August 27, 2015

Temp ( °F °C ) Dew Point ( °F °C ) Humidity (%) Winds ( mph kmh ) Pressure ( in mb ) Visibility ( mi km ) Precip ( " mm )
12:54 am 00:54 Clear 71 21.7 61 16.1 71 71 SE 9 15 30.02 1017 10 16.0934 0 0
1:54 am 01:54 Clear 70 21.1 61 16.1 73 73 SE 8 13 30.01 1016 10 16.0934 0 0
2:54 am 02:54 Clear 70 21.1 61 16.1 73 73 SSE 13 20 30 1016 10 16.0934 0 0
3:54 am 03:54 Clear 69 20.6 61 16.1 76 76 SSE 10 17 29.98 1015 10 16.0934 0 0
4:54 am 04:54 Clear 69 20.6 61 16.1 76 76 SSE 10 17 29.98 1015 10 16.0934 0 0
5:54 am 05:54 Clear 69 20.6 61 16.1 76 76 SSE 10 17 29.98 1015 10 16.0934 0 0
6:49 am 06:49 Partly Cloudy with Nearby Thunderstorms 70 21 61 16 73 73 SE 6 9 30 1016 10 16.0934 0 0
6:54 am 06:54 Partly Cloudy with Nearby Thunderstorms 69 20.6 61 16.1 76 76 Calm 30 1016 10 16.0934 0 0.0254
7:15 am 07:15 Mostly Cloudy with Light Thunderstorms 68 20 62 16.7 81 81 ESE 8 13 30 1016 9 14.48406 0.03 0.762
7:34 am 07:34 Mostly Sunny 66 19 63 17 88 88 E 8 13 30 1016 10 16.0934 0 0
7:54 am 07:54 Sunny 67 19.4 63 17.2 87 87 ESE 7 11 29.99 1016 10 16.0934 0.03 0.762
8:54 am 08:54 Sunny 67 19.4 62 16.7 84 84 SE 13 20 29.98 1015 10 16.0934 0 0
9:54 am 09:54 Sunny 72 22.2 62 16.7 71 71 SSE 18 30 29.95 1014 10 16.0934 0 0
10:54 am 10:54 Sunny 75 23.9 64 17.8 69 69 SE 14 22 29.99 1016 10 16.0934 0 0
11:54 am 11:54 Sunny 75 23.9 64 17.8 69 69 SSE 18 30 29.98 1015 10 16.0934 0 0
12:54 pm 12:54 Sunny 79 26.1 65 18.3 62 62 SSE 20 31 29.97 1015 10 16.0934 0 0
1:54 pm 13:54 Sunny 83 28.3 68 20 61 61 SSE 24 39 29.92 1013 10 16.0934 0 0
2:54 pm 14:54 Sunny 85 29.4 69 20.6 59 59 SSE 25 41 29.89 1012 10 16.0934 0 0
3:54 pm 15:54 Sunny 85 29.4 66 18.9 53 53 S 23 37 29.88 1012 9 14.48406 0 0
4:54 pm 16:54 Sunny 83 28.3 66 18.9 57 57 SSE 22 35 29.87 1012 10 16.0934 0 0
5:54 pm 17:54 Sunny 82 27.8 67 19.4 60 60 SSE 16 26 29.86 1011 10 16.0934 0 0
6:54 pm 18:54 Sunny 79 26.1 67 19.4 67 67 SSE 13 20 29.86 1011 9 14.48406 0 0
7:54 pm 19:54 Mostly Sunny 78 25.6 67 19.4 69 69 SSE 13 20 29.84 1010 10 16.0934 0 0
8:54 pm 20:54 Cloudy 78 25.6 65 18.3 64 64 SSE 13 20 29.85 1011 10 16.0934 0 0
9:01 pm 21:01 Cloudy with Nearby Thunderstorms 79 26.1 64 17.8 60 60 SSE 13 20 29.83 1010 10 16.0934 0 0
9:18 pm 21:18 Cloudy with Thunderstorms 81 27 63 17 54 54 S 15 24 29.85 1011 10 16.0934 0 0
9:45 pm 21:45 Cloudy with Nearby Thunderstorms 75 23.9 65 18.3 71 71 SSE 17 28 29.83 1010 9 14.48406 0.04 1.016
9:54 pm 21:54 Cloudy with Nearby Thunderstorms 75 23.9 65 18.3 71 71 SE 18 30 29.85 1011 9 14.48406 0.04 1.016
10:16 pm 22:16 Cloudy with Light Rain 73 23 64 18 74 74 SE 18 30 29.83 1010 10 16.0934 0 0
10:37 pm 22:37 Cloudy with Nearby Thunderstorms 74 23.3 65 18.3 74 74 ESE 18 30 29.8 1009 10 16.0934 0.02 0.508
10:54 pm 22:54 Cloudy with Nearby Thunderstorms 73 22.8 65 18.3 76 76 ESE 18 30 29.8 1009 10 16.0934 0.02 0.508
11:31 pm 23:31 Cloudy 73 22.8 64 17.8 74 74 VRB 7 11 29.8 1009 10 16.0934 0 0.0254
11:54 pm 23:54 Cloudy with Nearby Thunderstorms 71 21.7 66 18.9 84 84 E 12 19 29.82 1010 10 16.0934 0 0.0254

Powered by AerisWeather